Location: Black River Observatory
(43.1000°N, 82.6200°W)
Time: 20:30:42
(UTC-04:00)

Daily predictions for brighter satellites

Satellite Brightness Start Highest point End
(mag) Time Altitude Azimuth Time Altitude Azimuth Time Altitude Azimuth
Meteor 1-26 Rocket 4.3 21:22:06 10° N 21:27:45 70° E 21:33:27 10° SSE
Meteor 2-3 Rocket 4.0 21:22:18 10° S 21:27:50 53° E 21:33:19 10° NNE
ARGOS 4.4 21:26:00 10° ESE 21:30:17 25° ENE 21:34:34 10° N
Cosmos 1782 4.4 21:27:39 10° NNE 21:30:40 20° ENE 21:33:38 10° ESE
Helios 1B rocket 2.8 21:27:29 10° NNE 21:31:25 42° E 21:35:19 10° S
Cosmos 1634 Rocket 4.3 21:26:48 10° N 21:32:55 50° ENE 21:39:01 10° SSE
Cosmos 2082 Rocket 3.8 21:29:17 10° NW 21:34:21 35° WSW 21:39:24 10° SSW
ATLAS 3B R/B 4.3 21:28:39 10° WSW 21:35:40 44° NW 21:42:25 10° NNE
H-2A R/B 3.7 21:33:38 10° ESE 21:37:25 20° ENE 21:41:10 10° NNE
Cosmos 1937 Rocket 3.5 21:34:57 10° SSW 21:40:04 88° WNW 21:45:16 10° NNE
Lacrosse 4 Rocket 3.5 21:37:08 10° N 21:40:18 19° NE 21:43:28 10° E
CZ-4B DEB 2.9 21:38:21 10° SSE 21:41:10 46° ENE 21:44:00 10° N
Cosmos 1408 4.0 21:42:28 10° SE 21:45:20 21° E 21:48:13 10° NE
Cosmos 1833 Rocket 4.5 21:40:40 10° NW 21:45:27 29° WSW 21:50:13 10° SSW
Meteor 1-29 3.3 21:43:03 10° NNE 21:46:27 47° E 21:49:49 10° S
Cosmos 2150 Rocket 4.2 21:42:48 10° SSW 21:48:11 80° WNW 21:53:31 10° NNE
Cosmos 2298 Rocket 4.4 21:43:12 10° SSW 21:48:28 70° WNW 21:53:47 10° NNE
Cosmos 1825 3.5 21:45:58 10° SE 21:48:56 22° E 21:51:56 10° NE
Cosmos 1315 Rocket 4.3 21:45:10 10° SSW 21:48:59 42° WNW 21:52:53 10° N
Shenzhou-11 Module 3.1 21:49:57 10° W 21:52:45 33° SSW 21:55:05 13° SE
Resurs 01 Rocket 3.8 21:51:15 10° SSW 21:54:54 25° W 21:58:35 10° NW
Helios 1A 3.4 21:57:19 10° S 22:01:27 63° WSW 22:05:39 10° NNW
Molniya-1 3.3 22:00:00 10° S 22:03:05 - ENE 22:01:08 23° SSE
Cosmos 1892 3.4 21:59:35 10° SSW 22:03:23 56° W 22:07:10 10° N
COSMOS 2455 2.8 22:00:45 10° SSW 22:06:45 76° ESE 22:12:46 10° NNE
MetOp-A 4.3 22:01:47 11° SSE 22:06:54 62° ENE 22:12:11 10° N
Cosmos 2279 Rocket 4.2 22:01:52 10° N 22:08:01 55° ENE 22:13:34 13° SSE
ERS-1 Rocket 3.0 22:03:30 10° SSE 22:08:30 75° ENE 22:13:33 10° N
Cosmos 1048 Rocket 4.4 22:06:46 10° N 22:11:58 50° ENE 22:15:53 17° SE
Cosmos 1943 Rocket 2.5 22:06:58 10° S 22:12:12 43° ESE 22:17:26 10° NE
Cosmos 2142 Rocket 4.5 22:07:00 10° N 22:13:10 88° E 22:19:19 10° S
Cosmos 2263 4.3 22:09:49 10° S 22:15:27 58° ESE 22:21:05 10° NNE
Aureole 1 4.5 22:12:51 10° SSW 22:15:51 73° WNW 22:19:18 10° NNE
NOAA 11 4.2 22:13:36 10° SSE 22:19:04 89° WSW 22:24:36 10° NNW
Milstar 3 4.2 22:14:48 10° SW 22:23:32 26° S 22:27:31 18° SE
Cosmos 1340 3.0 22:20:16 10° N 22:23:57 47° ENE 22:25:58 23° SE
USA 215 3.3 22:19:36 16° SE 22:24:59 88° SW 22:31:36 10° NW
Okean 1-7 3.1 22:21:01 10° N 22:25:27 81° W 22:29:17 13° S
Lacrosse 5 rocket 0.8 22:25:35 10° SW 22:29:09 82° SE 22:32:49 10° NE
Cosmos 2369 Rocket 2.3 22:24:16 10° SSW 22:29:55 79° WNW 22:35:39 10° NNE
Cosmos 1606 2.7 22:31:05 10° N 22:34:52 82° W 22:37:22 20° S
SPOT 1/Viking Rocket 3.8 22:31:51 21° SE 22:35:13 57° ENE 22:40:20 10° N
SL-08 RB Rocket 3.7 22:35:00 21° SSE 22:38:05 75° ENE 22:42:45 10° N
DNEPR-1 R/B 3.7 22:33:06 10° SSW 22:38:21 71° ESE 22:42:50 10° NE
GEOS 3 Rocket 4.3 22:38:07 19° ESE 22:41:30 46° NE 22:46:30 10° NNW
ISS -3.4 22:40:53 10° WSW 22:44:06 63° NNW 22:47:20 10° NE
Cosmos 1269 Rocket 4.0 22:40:15 10° NNW 22:45:35 88° ENE 22:48:45 25° SSE
Meteor 1-27 Rocket 3.7 22:39:54 10° N 22:45:41 72° ENE 22:49:13 24° SSE
Cosmos 372 Rocket 3.9 22:42:16 10° SSW 22:47:24 84° ESE 22:52:32 10° NNE
Cosmos 1733 Rocket 3.2 22:45:53 28° SSE 22:47:48 51° E 22:52:00 10° NNE
Terra 2.6 22:49:48 26° ESE 22:51:46 38° ENE 22:56:11 10° N
CENTAUR R/B 2.5 22:47:16 10° SW 22:53:17 89° SE 23:00:14 10° NE
Cosmos 1125 Rocket 3.7 22:48:05 10° SSW 22:53:19 74° WNW 22:58:34 10° NNE
Nimbus 7 Rocket 4.3 22:49:21 10° NNE 22:55:15 68° ESE 22:59:42 18° S
ATLAS 5 CENTAUR R/B 2.4 22:49:47 10° NW 22:55:48 89° ENE 22:59:28 28° SE
Cosmos 1437 4.0 22:54:36 10° NNE 22:57:25 27° ENE 22:57:25 27° ENE
Tiangong 2 3.2 22:55:49 10° WSW 22:57:47 17° SW 22:57:47 17° SW
SPOT 5 3.4 22:58:44 21° S 23:02:22 64° WSW 23:07:40 10° NNW
GPS 2-04 Rocket1 4.2 23:03:32 10° WSW 23:05:16 19° SW 23:05:16 19° SW
Cosmos 1782 4.5 23:03:33 10° NNW 23:07:04 30° W 23:09:54 14° SSW
ARGOS 3.9 23:06:21 17° SSW 23:10:14 47° W 23:15:25 10° NNW
Cosmos 1867 4.1 23:05:12 10° NNW 23:10:32 51° NE 23:12:56 30° ESE
Cosmos 1656 Rocket 3.6 23:10:03 28° S 23:12:52 60° ESE 23:18:18 10° NNE
H-2A R/B 2.5 23:13:15 25° S 23:16:21 62° WSW 23:21:40 10° NNW
Lacrosse 4 Rocket 1.8 23:15:00 10° NW 23:19:26 60° WSW 23:20:44 41° S
CARTOSAT-1 3.5 23:19:18 49° SE 23:20:23 74° ENE 23:24:43 10° N
CZ-4 R/B 4.4 23:19:24 10° NNE 23:23:44 37° E 23:23:54 37° ESE
Cosmos 1674 Rocket 3.5 23:19:24 10° N 23:23:45 83° W 23:24:53 49° S
Cosmos 1825 4.4 23:21:21 10° SW 23:24:26 23° WNW 23:27:32 10° NNW
Cosmos 1378 Rocket 3.7 23:20:56 10° N 23:25:19 56° E 23:26:03 49° ESE
Cosmos 1862 4.5 23:24:27 19° SW 23:26:53 40° WNW 23:30:39 10° N
Cosmos 494 Rocket 3.9 23:22:14 10° NNW 23:27:29 76° ENE 23:29:03 46° SE
Cosmos 1092 Rocket 3.9 23:27:20 31° S 23:30:28 83° E 23:36:38 10° N
ATLAS CENTAUR R/B 3.1 23:33:00 19° ENE 23:33:00 19° ENE 23:34:25 10° NE
Nadezhda 4 Rocket 4.2 23:27:53 20° SSW 23:32:23 68° W 23:38:33 10° N
Cosmos 2227 Rocket 3.7 23:32:27 10° N 23:37:05 25° NE 23:39:30 19° E
H-2A R/B 1.8 23:37:08 64° ESE 23:37:30 69° ENE 23:41:37 10° N
Cosmos 2219 3.3 23:36:08 10° NNW 23:41:54 70° ENE 23:43:36 46° SE
CZ-2C R/B 4.2 23:38:29 10° NE 23:41:46 19° E 23:41:46 19° E
CZ-4B R/B 3.7 23:41:04 10° NNE 23:45:52 48° E 23:46:05 48° ESE
Cosmos 1812 3.0 23:42:31 10° N 23:46:07 58° ENE 23:46:07 58° ENE
Gbstr 26 Del rocket 4.4 23:42:43 10° NW 23:46:43 32° NNE 23:48:42 20° ENE
CZ-4C R/B 3.9 23:53:17 51° ENE 23:53:23 51° ENE 23:57:27 10° N
Okean 3 3.7 23:51:03 10° NNW 23:55:10 59° W 23:55:33 56° WSW
